FW6650 Weather Reports


Display with metric or nautical units.
time (UTC)temp
F
wind
direction
speed
MPH
gust
MPH
rain 1hr
in
rain 24hr
in
rain mn
in
humidity
%
barometer
mb
20260831082525 86 90 7.0 13.0 0.00 0.00 0.00 44 1015.3
20260831082025 85 115 5.0 13.0 0.00 0.00 0.00 45 1015.3
20260831081614 85 22 7.0 13.0 0.00 0.00 0.00 44 1015.3
20260831081025 85 71 5.0 13.0 0.00 0.00 0.00 45 1015.2
20260831080526 86 28 2.0 13.0 0.00 0.00 0.00 45 1015.2
20260831080049 85 9 5.0 11.0 0.00 0.00 0.00 46 1015.1
20260831075525 85 27 5.0 11.0 0.00 0.00 0.00 46 1015.2
20260831075027 85 5 4.0 8.0 0.00 0.00 0.00 46 1015.2
20260831074553 84 0 1.0 6.0 0.00 0.00 0.00 46 1015.2
20260831074028 84 342 2.0 10.0 0.00 0.00 0.00 47 1015.2
20260831073525 83 13 4.0 10.0 0.00 0.00 0.00 47 1015.2
20260831073120 84 40 3.0 8.0 0.00 0.00 0.00 47 1015.1
20260831072526 83 28 3.0 8.0 0.00 0.00 0.00 46 1015.2
20260831072026 83 28 2.0 6.0 0.00 0.00 0.00 47 1015.1
20260831071546 83 342 3.0 9.0 0.00 0.00 0.00 48 1015.1
20260831071029 83 334 2.0 9.0 0.00 0.00 0.00 48 1015.1
20260831070525 82 304 5.0 9.0 0.00 0.00 0.00 49 1015.1
20260831070046 82 344 4.0 9.0 0.00 0.00 0.00 49 1015.1
20260831065527 82 355 3.0 9.0 0.00 0.00 0.00 49 1015.1
20260831065027 82 302 4.0 8.0 0.00 0.00 0.00 50 1015.1
20260831064557 82 341 3.0 8.0 0.00 0.00 0.00 48 1015.1
20260831064028 82 42 1.0 5.0 0.00 0.00 0.00 47 1015.1
20260831063526 82 350 2.0 6.0 0.00 0.00 0.00 48 1015.1
20260831063054 81 15 3.0 6.0 0.00 0.00 0.00 49 1015.1
20260831062526 81 339 2.0 6.0 0.00 0.00 0.00 47 1015.1
20260831062028 81 22 1.0 6.0 0.00 0.00 0.00 48 1015.1
20260831061551 81 30 2.0 6.0 0.00 0.00 0.00 48 1015.2
20260831061028 81 22 2.0 5.0 0.00 0.00 0.00 48 1015.2
20260831060524 81 81 2.0 5.0 0.00 0.00 0.00 49 1015.2
20260831055524 80 32 2.0 5.0 0.00 0.00 0.00 50 1015.0
20260831055028 80 32 2.0 4.0 0.00 0.00 0.00 51 1015.1
20260831054543 79 341 1.0 3.0 0.00 0.00 0.00 53 1015.2
20260831054030 78 342 0.0 4.0 0.00 0.00 0.00 53 1015.1
20260831053524 78 343 2.0 4.0 0.00 0.00 0.00 53 1015.1
20260831053046 78 343 2.0 4.0 0.00 0.00 0.00 54 1015.1
20260831052525 78 36 1.0 3.0 0.00 0.00 0.00 54 1015.1
20260831052024 78 0 0.0 1.0 0.00 0.00 0.00 54 1015.1
20260831051548 78 0 0.0 3.0 0.00 0.00 0.00 55 1015.0
20260831051025 77 0 1.0 3.0 0.00 0.00 0.00 55 1015.1
20260831050529 77 0 0.0 0.0 0.00 0.00 0.00 55 1015.0
20260831050122 77 0 0.0 0.0 0.00 0.00 0.00 53 1014.9
20260831045525 77 0 0.0 0.0 0.00 0.00 0.00 54 1014.9
20260831045025 77 0 0.0 1.0 0.00 0.00 0.00 55 1014.9
20260831044546 76 0 0.0 1.0 0.00 0.00 0.00 56 1014.9
20260831044024 76 0 0.0 1.0 0.00 0.00 0.00 56 1014.9
20260831043525 76 0 0.0 0.0 0.00 0.00 0.00 57 1014.7
20260831043050 76 0 0.0 1.0 0.00 0.00 0.00 57 1014.8
20260831042525 76 0 0.0 1.0 0.00 0.00 0.00 57 1014.8
20260831042026 76 0 0.0 1.0 0.00 0.00 0.00 57 1014.8
20260831041549 76 0 0.0 0.0 0.00 0.00 0.00 58 1014.7
20260831041024 76 0 0.0 2.0 0.00 0.00 0.00 57 1014.7
20260831040526 76 0 0.0 3.0 0.00 0.00 0.00 58 1014.7
20260831040053 76 360 0.0 3.0 0.00 0.00 0.00 56 1014.7
20260831035524 77 360 1.0 3.0 0.00 0.00 0.00 53 1014.9
20260831035025 77 118 2.0 4.0 0.00 0.00 0.00 53 1014.8
20260831034547 77 360 1.0 4.0 0.00 0.00 0.00 53 1014.7
20260831034024 77 360 1.0 4.0 0.00 0.00 0.00 52 1014.8
20260831033524 77 360 1.0 5.0 0.00 0.00 0.00 52 1014.7
20260831033044 77 360 2.0 5.0 0.00 0.00 0.00 51 1014.9
20260831032526 77 360 2.0 5.0 0.00 0.00 0.00 51 1014.7
20260831032024 77 360 1.0 9.0 0.00 0.00 0.00 51 1014.8
20260831031554 78 360 2.0 9.0 0.00 0.00 0.00 51 1014.8
20260831031032 78 360 3.0 8.0 0.00 0.00 0.00 51 1014.6
20260831030526 78 360 2.0 11.0 0.00 0.00 0.00 50 1014.7
20260831030053 78 360 5.0 11.0 0.00 0.00 0.00 50 1014.7
20260831025532 78 360 2.0 11.0 0.00 0.00 0.00 50 1014.7
20260831025024 78 360 3.0 11.0 0.00 0.00 0.00 50 1014.6
20260831024546 78 360 5.0 11.0 0.00 0.00 0.00 50 1014.6
20260831024025 78 360 5.0 12.0 0.00 0.00 0.00 50 1014.5
20260831023525 78 360 6.0 12.0 0.00 0.00 0.00 50 1014.7
20260831023044 78 360 5.0 11.0 0.00 0.00 0.00 50 1014.6
20260831022533 78 360 3.0 11.0 0.00 0.00 0.00 50 1014.6
20260831022026 78 360 4.0 11.0 0.00 0.00 0.00 50 1014.7
20260831021550 78 360 5.0 12.0 0.00 0.00 0.00 49 1014.5
20260831021025 79 360 5.0 12.0 0.00 0.00 0.00 49 1014.7
20260831020525 79 360 3.0 10.0 0.00 0.00 0.00 49 1014.6
20260831020048 79 83 2.0 11.0 0.00 0.00 0.00 49 1014.7
20260831015524 79 360 6.0 12.0 0.00 0.00 0.00 49 1014.7
20260831015027 79 360 6.0 12.0 0.00 0.00 0.00 49 1014.7
20260831014551 78 360 5.0 12.0 0.00 0.00 0.00 49 1014.6
20260831014027 78 360 3.0 8.0 0.00 0.00 0.00 50 1014.7
20260831013526 78 360 1.0 8.0 0.00 0.00 0.00 49 1014.7
20260831013043 78 360 3.0 8.0 0.00 0.00 0.00 49 1014.7
20260831012528 78 360 3.0 9.0 0.00 0.00 0.00 49 1014.7
20260831012025 78 360 3.0 9.0 0.00 0.00 0.00 49 1014.7
20260831011544 78 360 3.0 6.0 0.00 0.00 0.00 49 1014.8
20260831011029 78 63 1.0 5.0 0.00 0.00 0.00 48 1014.8
20260831010528 78 0 1.0 6.0 0.00 0.00 0.00 47 1014.8
20260831010048 78 360 3.0 6.0 0.00 0.00 0.00 46 1014.8
20260831005525 77 360 2.0 5.0 0.00 0.00 0.00 47 1014.9
20260831005030 77 360 1.0 3.0 0.00 0.00 0.00 47 1014.9
20260831004545 77 40 1.0 3.0 0.00 0.00 0.00 48 1015.0
20260831004025 78 360 1.0 4.0 0.00 0.00 0.00 49 1015.0
20260831003526 78 360 2.0 4.0 0.00 0.00 0.00 50 1015.1
20260831003051 78 0 1.0 5.0 0.00 0.00 0.00 46 1015.1
20260831002524 78 360 3.0 5.0 0.00 0.00 0.00 46 1015.0
20260831002024 78 360 2.0 4.0 0.00 0.00 0.00 48 1015.0
20260831001542 78 360 0.0 5.0 0.00 0.00 0.00 49 1015.1
20260831001026 78 360 1.0 5.0 0.00 0.00 0.00 50 1015.1
20260831000524 78 360 2.0 5.0 0.00 0.00 0.00 51 1015.1
20260831000056 78 360 2.0 4.0 0.00 0.00 0.00 52 1015.2
20260830235526 78 360 1.0 4.0 0.00 0.00 0.00 53 1015.0
20260830235029 78 0 0.0 7.0 0.00 0.00 0.00 53 1015.0
20260830234558 78 360 2.0 7.0 0.00 0.00 0.00 54 1015.0
20260830234024 78 105 2.0 7.0 0.00 0.00 0.00 55 1015.0
20260830233525 78 98 0.0 4.0 0.00 0.00 0.00 56 1015.1
20260830233058 78 0 0.0 2.0 0.00 0.00 0.00 58 1015.1
20260830232527 77 0 1.0 2.0 0.00 0.00 0.00 57 1015.1
20260830232026 77 360 0.0 2.0 0.00 0.00 0.00 59 1015.1
20260830231545 77 0 0.0 2.0 0.00 0.00 0.00 58 1015.3
20260830231028 77 0 0.0 4.0 0.00 0.00 0.00 58 1015.3
20260830230528 78 0 1.0 4.0 0.00 0.00 0.00 56 1015.2
20260830230042 78 360 0.0 4.0 0.00 0.00 0.00 56 1015.3
20260830225529 77 0 0.0 4.0 0.00 0.00 0.00 57 1015.3
20260830225032 77 360 1.0 4.0 0.00 0.00 0.00 57 1015.3
20260830224547 77 170 1.0 4.0 0.00 0.00 0.00 57 1015.3
20260830224026 77 0 1.0 5.0 0.00 0.00 0.00 58 1015.3
20260830223527 77 360 2.0 5.0 0.00 0.00 0.00 58 1015.3
20260830223048 77 173 1.0 3.0 0.00 0.00 0.00 60 1015.3
20260830222525 77 173 0.0 3.0 0.00 0.00 0.00 61 1015.3
20260830222025 77 0 0.0 3.0 0.00 0.00 0.00 61 1015.4
20260830221549 77 360 0.0 5.0 0.00 0.00 0.00 62 1015.4
20260830221025 77 172 2.0 5.0 0.00 0.00 0.00 61 1015.4
20260830220527 77 165 3.0 5.0 0.00 0.00 0.00 61 1015.4
20260830220100 77 173 1.0 4.0 0.00 0.00 0.00 62 1015.4
20260830215528 77 360 2.0 5.0 0.00 0.00 0.00 63 1015.5
20260830215026 77 360 2.0 5.0 0.00 0.00 0.00 63 1015.4
20260830214553 78 360 3.0 5.0 0.00 0.00 0.00 64 1015.5
20260830214026 78 171 0.0 3.0 0.00 0.00 0.00 64 1015.5
20260830213526 78 360 1.0 3.0 0.00 0.00 0.00 64 1015.4
20260830213048 78 202 0.0 2.0 0.00 0.00 0.00 64 1015.5
20260830212525 78 0 0.0 2.0 0.00 0.00 0.00 60 1015.4
20260830212026 78 194 0.0 2.0 0.00 0.00 0.00 66 1015.4
20260830211548 78 0 0.0 2.0 0.00 0.00 0.00 67 1015.4
20260830211028 78 0 0.0 2.0 0.00 0.00 0.00 67 1015.5
20260830210526 78 194 0.0 2.0 0.00 0.00 0.00 67 1015.4
20260830210042 78 194 1.0 2.0 0.00 0.00 0.00 67 1015.4
20260830205528 78 194 1.0 2.0 0.00 0.00 0.00 67 1015.5
20260830205024 78 195 0.0 4.0 0.00 0.00 0.00 67 1015.4
20260830204558 78 0 1.0 4.0 0.00 0.00 0.00 67 1015.4
20260830204026 78 195 2.0 3.0 0.00 0.00 0.00 67 1015.3
20260830203525 78 360 0.0 3.0 0.00 0.00 0.00 68 1015.3
20260830203049 78 0 1.0 4.0 0.00 0.00 0.00 68 1015.4
20260830202528 78 188 2.0 5.0 0.00 0.00 0.00 69 1015.3
20260830202027 78 360 2.0 5.0 0.00 0.00 0.00 69 1015.3
20260830201556 78 195 2.0 5.0 0.00 0.00 0.00 69 1015.3
20260830201024 78 190 2.0 5.0 0.00 0.00 0.00 69 1015.3
20260830200528 78 186 2.0 5.0 0.00 0.00 0.00 69 1015.2
20260830200044 78 192 2.0 6.0 0.00 0.00 0.00 69 1015.1
20260830195526 78 188 1.0 6.0 0.00 0.00 0.00 69 1015.3
20260830195026 78 360 3.0 6.0 0.00 0.00 0.00 68 1015.2
20260830194553 78 360 3.0 6.0 0.00 0.00 0.00 68 1015.2
20260830194027 78 360 3.0 6.0 0.00 0.00 0.00 67 1015.3
20260830193525 79 360 2.0 6.0 0.00 0.00 0.00 67 1015.2
20260830193047 79 360 3.0 6.0 0.00 0.00 0.00 67 1015.1
20260830192527 79 360 4.0 6.0 0.00 0.00 0.00 67 1015.1
20260830192027 79 360 1.0 5.0 0.00 0.00 0.00 67 1015.1
20260830191616 79 360 2.0 5.0 0.00 0.00 0.00 66 1015.1
20260830191025 79 360 2.0 6.0 0.00 0.00 0.00 66 1015.1
20260830190524 79 218 3.0 6.0 0.00 0.00 0.00 66 1015.1
20260830190105 79 219 2.0 6.0 0.00 0.00 0.00 66 1015.1
20260830185525 80 178 3.0 5.0 0.00 0.00 0.00 66 1015.1
20260830185029 80 215 3.0 5.0 0.00 0.00 0.00 66 1015.1
20260830184548 80 184 2.0 5.0 0.00 0.00 0.00 66 1015.0
20260830184024 80 194 2.0 5.0 0.00 0.00 0.00 66 1014.9
20260830183524 80 188 2.0 5.0 0.00 0.00 0.00 66 1014.9
20260830183051 80 198 2.0 5.0 0.00 0.00 0.00 66 1014.7
20260830182530 80 181 2.0 4.0 0.00 0.00 0.00 65 1014.7
20260830182026 80 168 1.0 5.0 0.00 0.00 0.00 65 1014.8
20260830181548 80 166 2.0 5.0 0.00 0.00 0.00 65 1014.7
20260830181024 80 157 1.0 4.0 0.00 0.00 0.00 65 1014.7
20260830180527 80 194 1.0 4.0 0.00 0.00 0.00 65 1014.6
20260830180047 81 211 1.0 4.0 0.00 0.00 0.00 64 1014.6
20260830175524 81 217 1.0 3.0 0.00 0.00 0.00 63 1014.6
20260830175028 81 0 0.0 3.0 0.00 0.00 0.00 63 1014.5
20260830174550 81 207 1.0 4.0 0.00 0.00 0.00 63 1014.5
20260830174034 81 219 2.0 4.0 0.00 0.00 0.00 62 1014.4
20260830173525 81 0 1.0 4.0 0.00 0.00 0.00 62 1014.5
20260830173050 81 360 2.0 3.0 0.00 0.00 0.00 61 1014.4
20260830172527 82 0 0.0 4.0 0.00 0.00 0.00 60 1014.3
20260830172028 82 0 0.0 4.0 0.00 0.00 0.00 59 1014.2
20260830171547 82 277 1.0 4.0 0.00 0.00 0.00 59 1014.2
20260830171026 82 0 1.0 4.0 0.00 0.00 0.00 57 1014.3
20260830170529 81 360 0.0 4.0 0.00 0.00 0.00 56 1014.2
20260830170046 81 0 0.0 4.0 0.00 0.00 0.00 56 1014.1
20260830165529 82 360 1.0 3.0 0.00 0.00 0.00 55 1014.2
20260830165029 82 360 1.0 3.0 0.00 0.00 0.00 55 1014.2
20260830164549 82 360 0.0 3.0 0.00 0.00 0.00 55 1014.3
20260830164028 82 0 0.0 4.0 0.00 0.00 0.00 55 1014.2
20260830163526 81 84 1.0 8.0 0.00 0.00 0.00 56 1014.1
20260830163046 81 85 3.0 8.0 0.00 0.00 0.00 55 1014.2
20260830162524 82 92 4.0 10.0 0.00 0.00 0.00 55 1014.3
20260830162029 82 99 4.0 10.0 0.00 0.00 0.00 55 1014.1
20260830161556 82 114 4.0 12.0 0.00 0.00 0.00 55 1014.1
20260830161024 82 132 6.0 12.0 0.00 0.00 0.00 55 1014.3
20260830160524 82 113 6.0 14.0 0.00 0.00 0.00 55 1014.1
20260830160053 82 78 7.0 14.0 0.00 0.00 0.00 54 1014.1
20260830155527 82 117 8.0 14.0 0.00 0.00 0.00 54 1014.1
20260830155026 83 109 5.0 14.0 0.00 0.00 0.00 54 1014.0
20260830154551 83 114 7.0 14.0 0.00 0.00 0.00 53 1013.9
20260830154026 83 133 3.0 12.0 0.00 0.00 0.00 53 1013.9
20260830153526 83 128 8.0 13.0 0.00 0.00 0.00 53 1013.9
20260830153048 83 146 8.0 14.0 0.00 0.00 0.00 52 1014.0
20260830152528 83 109 8.0 14.0 0.00 0.00 0.00 53 1013.9
20260830152025 84 113 7.0 14.0 0.00 0.00 0.00 52 1013.8
20260830151546 85 90 6.0 14.0 0.00 0.00 0.00 50 1013.8
20260830151025 84 82 5.0 14.0 0.00 0.00 0.00 51 1013.8
20260830150528 85 136 8.0 14.0 0.00 0.00 0.00 50 1013.9
20260830150046 85 102 6.0 13.0 0.00 0.00 0.00 49 1013.9
20260830145529 86 108 6.0 11.0 0.00 0.00 0.00 47 1013.8
20260830145025 87 130 4.0 9.0 0.00 0.00 0.00 46 1013.8
20260830144554 87 114 4.0 9.0 0.00 0.00 0.00 45 1013.7
20260830144026 87 99 4.0 10.0 0.00 0.00 0.00 44 1013.7
20260830143526 87 95 4.0 10.0 0.00 0.00 0.00 44 1013.8
20260830143046 87 117 5.0 9.0 0.00 0.00 0.00 44 1013.7
20260830142526 87 109 3.0 8.0 0.00 0.00 0.00 45 1013.7
20260830142026 87 24 4.0 8.0 0.00 0.00 0.00 45 1013.8
20260830141545 87 118 4.0 8.0 0.00 0.00 0.00 43 1013.7
20260830141027 87 103 3.0 9.0 0.00 0.00 0.00 44 1013.8
20260830140526 87 109 5.0 9.0 0.00 0.00 0.00 44 1013.8
20260830140046 87 86 4.0 10.0 0.00 0.00 0.00 44 1013.9
20260830135528 87 122 4.0 12.0 0.00 0.00 0.00 44 1013.8
20260830135026 86 126 6.0 14.0 0.00 0.00 0.00 45 1013.9
20260830134550 86 148 4.0 14.0 0.00 0.00 0.00 45 1014.0
20260830134026 86 108 7.0 15.0 0.00 0.00 0.00 46 1013.9
20260830133527 85 137 10.0 16.0 0.00 0.00 0.00 46 1013.9
20260830133059 85 130 9.0 19.0 0.00 0.00 0.00 47 1013.9
20260830132527 85 118 13.0 19.0 0.00 0.00 0.00 47 1013.9
20260830132030 86 134 9.0 19.0 0.00 0.00 0.00 48 1013.8
20260830131554 86 45 5.0 17.0 0.00 0.00 0.00 48 1013.9
20260830131024 85 117 10.0 19.0 0.00 0.00 0.00 49 1013.9
20260830130525 85 134 10.0 19.0 0.00 0.00 0.00 49 1013.9
20260830130105 84 87 12.0 19.0 0.00 0.00 0.00 50 1014.0
20260830125525 84 136 7.0 17.0 0.00 0.00 0.00 50 1014.0
20260830125029 84 140 8.0 20.0 0.00 0.00 0.00 49 1014.0
20260830124546 84 131 12.0 20.0 0.00 0.00 0.00 49 1014.1
20260830124028 85 124 11.0 20.0 0.00 0.00 0.00 48 1014.1
20260830123527 85 112 8.0 18.0 0.00 0.00 0.00 47 1014.1
20260830123052 86 88 10.0 19.0 0.00 0.00 0.00 46 1014.0
20260830122525 87 128 8.0 19.0 0.00 0.00 0.00 45 1014.1
20260830122028 87 131 10.0 19.0 0.00 0.00 0.00 44 1014.3
20260830121543 88 44 7.0 16.0 0.00 0.00 0.00 45 1014.3
20260830121024 88 171 10.0 16.0 0.00 0.00 0.00 44 1014.3
20260830120526 88 132 9.0 19.0 0.00 0.00 0.00 44 1014.3
20260830115525 88 107 9.0 14.0 0.00 0.00 0.00 44 1014.3
20260830115024 88 135 9.0 14.0 0.00 0.00 0.00 44 1014.4
20260830114542 89 138 6.0 14.0 0.00 0.00 0.00 42 1014.5
20260830114025 89 257 2.0 8.0 0.00 0.00 0.00 41 1014.4
20260830113527 90 162 2.0 11.0 0.00 0.00 0.00 40 1014.5
20260830113047 89 156 1.0 11.0 0.00 0.00 0.00 40 1014.5
20260830112527 89 128 7.0 11.0 0.00 0.00 0.00 40 1014.5
20260830112027 89 326 2.0 9.0 0.00 0.00 0.00 41 1014.5
20260830111546 88 61 4.0 9.0 0.00 0.00 0.00 41 1014.6
20260830111026 88 124 4.0 11.0 0.00 0.00 0.00 40 1014.6
20260830110528 87 119 6.0 11.0 0.00 0.00 0.00 42 1014.7
20260830110048 87 85 5.0 11.0 0.00 0.00 0.00 43 1014.6
20260830105527 88 46 3.0 10.0 0.00 0.00 0.00 43 1014.6
20260830105025 88 111 4.0 9.0 0.00 0.00 0.00 43 1014.7
20260830104544 88 206 1.0 9.0 0.00 0.00 0.00 40 1014.7
20260830104026 88 286 1.0 8.0 0.00 0.00 0.00 40 1014.8
20260830103526 87 153 3.0 11.0 0.00 0.00 0.00 41 1014.9
20260830103048 87 74 5.0 13.0 0.00 0.00 0.00 43 1015.0
20260830102527 86 117 7.0 13.0 0.00 0.00 0.00 44 1015.0
20260830102032 87 133 6.0 13.0 0.00 0.00 0.00 44 1015.0
20260830101542 86 161 6.0 13.0 0.00 0.00 0.00 43 1015.1
20260830101026 86 127 7.0 15.0 0.00 0.00 0.00 44 1015.1
20260830100525 86 128 8.0 15.0 0.00 0.00 0.00 44 1015.2
20260830100043 87 143 7.0 13.0 0.00 0.00 0.00 44 1015.0
20260830095525 86 97 6.0 13.0 0.00 0.00 0.00 44 1015.0
20260830095025 87 103 6.0 13.0 0.00 0.00 0.00 43 1015.1
20260830094550 86 142 7.0 15.0 0.00 0.00 0.00 43 1015.1
20260830094025 86 129 6.0 15.0 0.00 0.00 0.00 44 1015.2
20260830093524 86 169 10.0 15.0 0.00 0.00 0.00 44 1015.2
20260830093041 86 165 6.0 10.0 0.00 0.00 0.00 44 1015.2
20260830092524 86 114 4.0 14.0 0.00 0.00 0.00 43 1015.2
20260830092025 86 158 8.0 14.0 0.00 0.00 0.00 43 1015.2
20260830091551 87 138 3.0 14.0 0.00 0.00 0.00 40 1015.2
20260830091025 85 28 2.0 10.0 0.00 0.00 0.00 40 1015.3
20260830090526 85 109 1.0 10.0 0.00 0.00 0.00 40 1015.3
20260830090046 85 134 3.0 9.0 0.00 0.00 0.00 41 1015.3
20260830085530 85 83 3.0 9.0 0.00 0.00 0.00 40 1015.4
20260830085030 85 65 1.0 6.0 0.00 0.00 0.00 39 1015.4
20260830084546 84 350 3.0 6.0 0.00 0.00 0.00 40 1015.4
20260830084024 84 315 2.0 8.0 0.00 0.00 0.00 40 1015.3
20260830083526 84 336 1.0 8.0 0.00 0.00 0.00 40 1015.4
20260830083056 84 22 1.0 6.0 0.00 0.00 0.00 40 1015.3